Simultaneous Nadir Overpasses (SNOs) Predictions

Prediction of SNOs between GOES-15 and METOP-C Satellite Orbit:

Table of predicted SNOs for the next 14.0 days since TLE Epoch: 7/4/2020
Index Date Time (GOES-15) GOES-15 Lat,Lon METOP-C Lat,Lon Distance(km) Time Diff (sec)
1 07/05/2020 06:01:09 -0.04,-128.21 0.06,-127.75 52.80 80
2 07/06/2020 18:20:01 0.04,-128.24 0.96,-132.31 463.78 80
3 07/07/2020 18:02:02 0.04,-128.26 -0.15,-127.31 107.57 80
4 07/09/2020 06:21:02 -0.03,-128.29 -0.83,-131.92 413.39 80
5 07/10/2020 05:57:42 -0.03,-128.30 0.29,-126.92 157.36 80
6 07/11/2020 18:16:35 0.02,-128.33 0.74,-131.49 359.99 80
7 07/12/2020 17:58:35 0.02,-128.35 -0.38,-126.49 211.15 80
8 07/14/2020 06:17:36 -0.02,-128.37 -0.60,-131.10 309.72 80
9 07/15/2020 05:54:16 -0.02,-128.38 0.51,-126.10 260.59 80
10 07/16/2020 18:13:08 0.02,-128.39 0.51,-130.66 258.25 80
11 07/17/2020 17:55:09 0.03,-128.40 -0.60,-125.67 312.11 80
